Location: Croagnes
(43.9363°N, 5.3265°E)
Time: 18:37:39
(UTC+00:00)

CZ-4C R/B - Pass Details

Date: 06 June 2020
Orbit: 634 x 1368 km, 63.4° (Epoch: 09 July)

Event Time Altitude Azimuth Distance (km) Brightness Sun altitude
Exits shadow 23:31:35 62° 174° (S) 853 1.9 -23.3°
Maximum altitude 23:32:17 72° 123° (ESE) 814 1.9 -23.3°
Drops below altitude 10° 23:38:05 10° 40° (NE) 2,558 5.3 -23.3°
Sets 23:40:51 0° 39° (NE) 3,623 6.3 -23.3°
